ロニオス彗星

201P/LONEOS (2008)

English version
Home page
Total 6,336 html files since Dec. 4, 1995
Updated on October 12, 2008

---------------------------------------------------------------------

・ プロフィール

符号 201P/2008 Q4
検出日 2008年8月31日
検出光度 16.5等
検出者 Michael Jaeger (Stixendorf, Austria)

・ 写真集

・ 軌道要素

Epoch 2008 Aug. 2.0 TT = JDT 2454680.5
T 2008 Aug. 4.75856 TT                                  MPC
q   1.3450207            (2000.0)            P               Q
n   0.15293123     Peri.   24.96262     +0.49783288     -0.86438220
a   3.4631550      Node    35.30179     +0.77374084     +0.40581090
e   0.6116198      Incl.    7.03253     +0.39177485     +0.29691906
P   6.44
From 150 observations 2001-2008, mean residual 0".79.

・ 星図

・ 光度変化

        m1 = 14.0 + 5 logΔ + 10.0 log r

---------------------------------------------------------------------

軌道要素はM.P.E.C. 2008-R76に掲載されたものです。
星図は StellaNavigator Ver.2.0 for Windows (アストロアーツ編著 / アスキー出版局刊) で作成したものです。
光度グラフはComet for Windowsで作成したものです。

---------------------------------------------------------------------

Copyright(C) 1995-2008 Seiichi Yoshida (comet@aerith.net). All rights reserved.